Regional Weather Roundup
Issued by NWS Goodland, KS

Home | Current Version | Previous Version | Text Only | Print | Product List | Glossary On
Versions: 1 2 3 4 5 6 7 8 9 10 11 12 13 14 15 16 17 18 19 20 21 22 23 24 25 26 27 28 29 30 31 32 33 34 35 36 37 38 39 40 41 42 43 44 45 46 47 48 49 50
000
ASUS43 KGLD 270708
RWRGLD

GOODLAND FORECAST AREA HOURLY WEATHER ROUNDUP
NATIONAL WEATHER SERVICE GOODLAND KS
100 AM MDT THU JUL 27 2017

...OFFICIAL OBSERVATIONS...

CITY           SKY/WX    TMP DP  RH WIND       PRES   REMARKS
GOODLAND KS    CLOUDY    71  67  87 NE9       30.15F
HILL CITY KS   CLOUDY    74  71  91 N8        30.07F
IMPERIAL NEB   CLOUDY    67  63  87 N5        30.17S
MCCOOK NEB     CLOUDY    71  68  90 NE5       30.11F
AKRON CO       CLOUDY    67  63  87 SE7       30.24F
BURLINGTON CO  CLOUDY    69  66  90 N5        30.20S
LIMON CO       LGT RAIN  63  62  97 W10       30.30F
$$

...UNOFFICIAL OBSERVATIONS...

CITY           SKY/WX    TMP DP  RH WIND       PRES   REMARKS
LENORA KS        N/A     72  32  23 MISG        N/A
NORTON KS      CLOUDY    70  64  83 N6        30.09
SHARON SPRINGS   N/A     70  67  92 CALM        N/A
TRENTON NEB      N/A     68  32  26 CALM        N/A
KIT CARSON CO    N/A     69  65  89 MISG        N/A
YUMA CO        FAIR      64  57  77 CALM      30.21F
$$




USA.gov is the U.S. government's official web portal to all federal, state and local government web resources and services.